Location: Piotrkow Trybunalski
(51.4000°N, 19.6830°E)
Time: 05:01:54
(UTC+02:00)

A-11 Canister half - Pass Details

Date: 02 February 2023
Orbit: 1526 x 1682 km, 47.3° (Epoch: 25 March)

Event Time Altitude Azimuth Distance (km) Brightness Sun altitude
Rises 08:18:01 0° 259° (W) 4,677 11.2 7.0°
Reaches altitude 10° 08:21:03 10° 257° (WSW) 3,701 10.7 7.4°
Maximum altitude 08:30:18 70° 176° (S) 1,637 9.6 8.5°
Drops below altitude 10° 08:39:48 10° 96° (E) 3,794 12.1 9.6°
Sets 08:42:56 0° 94° (E) 4,800 12.5 10.0°
